Regional Weather Roundup
Issued by NWS

Home | Current Version | Previous Version | Text Only | Print | Product List | Glossary Off
Versions: 1 2 3 4 5 6 7 8 9 10 11 12 13 14 15 16 17 18 19 20 21 22 23 24 25 26 27 28 29 30 31 32 33 34 35 36 37 38 39 40 41 42 43 44 45 46 47 48 49 50

000
ASUS45 KBOU 021307
RWRCO

WEATHER ROUNDUP FOR COLORADO
NATIONAL WEATHER SERVICE DENVER/BOULDER CO
700 AM MDT TUE SEP 02 2014

NOTE: "FAIR" INDICATES FEW OR NO CLOUDS BELOW 12000 FEET WITH NO
SIGNIFICANT WEATHER AND/OR OBSTRUCTIONS TO VISIBILITY.

COZ001>005-013-030-031-021400-
...NORTHWEST COLORADO...

CITY           SKY/WX    TMP DP  RH WIND       PRES   REMARKS
CRAIG          CLEAR     37  34  89 CALM      30.21R
HAYDEN         CLEAR     43  34  70 E8        30.22R
MEEKER         CLEAR     41  35  79 CALM      30.22R
MOUNT WERNER   NOT AVBL
STEAMBOAT SPGS CLEAR     38  35  87 CALM      30.24R
WALDEN         CLEAR     34  30  86 SE5       30.27S WCI  30
$$

COZ006>008-011-021400-
...WEST CENTRAL VALLEYS...

CITY           SKY/WX    TMP DP  RH WIND       PRES   REMARKS
GRAND JUNCTION CLEAR     54  40  59 E5        30.10R
MONTROSE       CLEAR     51  40  65 SE9       30.19R
EAGLE          CLEAR     39  36  87 CALM      30.28R
RIFLE          CLEAR     46  40  79 SE3       30.18R
DELTA          CLEAR     55  38  54 NE7       30.16R
NUCLA          CLEAR     52  36  54 E7        30.21R
$$

COZ017>023-064>068-021400-
...SOUTHWEST COLORADO...

CITY           SKY/WX    TMP DP  RH WIND       PRES   REMARKS
DURANGO        CLEAR     47  33  58 CALM      30.23R
CORTEZ         CLEAR     45  38  76 E3        30.18R
PAGOSA SPRINGS CLEAR     46  32  58 CALM      30.30R
TELLURIDE      CLEAR     50  34  53 SE8       30.39S
WOLF CREEK PAS CLEAR     45  27  49 SW10      30.59R
$$

COZ009-010-012-014-032>034-037-058>063-021400-
...CENTRAL COLORADO...

CITY           SKY/WX    TMP DP  RH WIND       PRES   REMARKS
ASPEN          CLEAR     43  32  65 SW12      30.29R
BUENA VISTA    CLEAR     38  30  72 CALM      30.32R
COPPER MTN     CLEAR     46  19  34 S17G24    30.54R
BERTHOUD PASS  FAIR      37  36  93 W25G37    30.53S
COTTONWOOD PAS CLEAR     54  23  30 CALM      30.41R
GUNNISON       PTCLDY    36  28  75 CALM      30.38R
KREMMLING      CLEAR     32  30  93 CALM      30.32R
LEADVILLE      CLEAR     44  25  47 NE10      30.40R
SALIDA         CLEAR     44  33  64 CALM      30.37R
SUNLIGHT       CLEAR     46  30  53 CALM      30.46S
WILKERSON PASS NOT AVBL
$$

COZ069>075-021400-
...SAN LUIS VALLEY/SANGRE DE CRISTO MOUNTAINS...

CITY           SKY/WX    TMP DP  RH WIND       PRES   REMARKS
ALAMOSA        MOCLDY    39  30  70 CALM      30.31R
LA VETA PASS   NOT AVBL
SAGUACHE       NOT AVBL
$$

COZ035-036-038>040-021400-
...NORTHERN COLORADO FRONT RANGE...

CITY           SKY/WX    TMP DP  RH WIND       PRES   REMARKS
DENVER INTL AP CLEAR     50  44  80 SW8       30.14R
DMNS CITY PARK   N/A     52  45  77 SW3       30.14R
AURORA         CLEAR     49  43  81 S8        30.15S
FRONT RANGE AP NOT AVBL
ERIE MUNI ARPT CLEAR     46  43  90 CALM      30.13S
BOULDER MUN AP CLEAR     50  43  76 CALM      30.13S
CENTENNIAL     CLEAR     48  42  80 S8        30.16R
BROOMFIELD     CLEAR     50  43  76 SW3       30.15R
FORT COLLINS   CLEAR     48  45  87 CALM      30.14S
LONGMONT       CLEAR     48  44  85 SW3       30.14S FOG
$$

COZ041-046-047-076>085-087-088-021400-
...PIKES PEAK/PALMER DIVIDE AND SOUTHERN FOOTHILLS...

CITY           SKY/WX    TMP DP  RH WIND       PRES   REMARKS
COLO. SPRINGS  PTCLDY    57  49  74 W3        30.20S
A. F. ACADEMY  CLEAR     43  40  90 N9        30.21S
ELLICOTT       CLOUDY    59  52  77 CALM      30.19R
FALCON         PTCLDY    52  52  97 NW3       30.24R FOG
FORT CARSON    CLEAR     52  45  76 NW7       30.18S
LIMON          CLOUDY    53  48  83 CALM      30.16R
MONUMENT HILL  CLEAR     50  48  93 S9        30.21S FOG
TRINIDAD       CLEAR     50  40  68 W8        30.18R
$$

COZ042>045-048>051-090-091-021400-
...NORTHEAST COLORADO...

CITY           SKY/WX    TMP DP  RH WIND       PRES   REMARKS
GREELEY ARPT   CLEAR     45  37  76 NW5       30.13S
AKRON          CLEAR     49  46  90 MISG      30.11S
BURLINGTON     PTCLDY    54  51  90 S6        30.12R
WRAY             N/A    N/A N/A N/A CALM      30.10R
STERLING       CLEAR     46  46 100 S3        30.09S
HOLYOKE        CLEAR     54  50  87 W6        30.09R
FORT MORGAN    CLEAR     46  43  90 CALM      30.12R
$$

COZ086-089-092>099-021400-
...SOUTHEAST COLORADO...

CITY           SKY/WX    TMP DP  RH WIND       PRES   REMARKS
PUEBLO         CLOUDY    60  51  72 W8        30.12R
LA JUNTA       CLOUDY    63  58  83 NE6       30.10R
LAMAR          CLOUDY    64  61  90 E12       30.08R FOG
SPRINGFIELD      N/A     59  59 100 CALM      30.09R
$$



USA.gov is the U.S. government's official web portal to all federal, state and local government web resources and services.